Home > Weather > Leoben > Past weeks

Flag for Austria Past Weather in Leoben, Styria, Austria — Yesterday and Last 2 Weeks

Now
57 °F

Passing clouds.


Feels Like: 57 °F
Forecast: 51 / 76 °F
Wind: 3 mph from Southwest

Location: Zeltweg

Current Time: May 28, 2016 at 6:13:19 AM

Latest Report: May 28, 2016 at 4:50 AM


Visibility: 6 mi

Pressure: 30.04 "Hg (28.17 "Hg at 540m altitude)

Humidity: 94%

Dew Point: 55 °F

Location of LeobenLocation

Past Weather in Leoben — Graph

°F

Leoben Temperature Yesterday

Maximum temperature yesterday: 79 °F (at 1:50 PM)
Minimum temperature yesterday: 52 °F (at 5:50 AM)
Average temperature yesterday: 70 °F

High & Low Weather Summary for the Past Weeks

 TemperatureHumidityPressure
High79 °F (May 22, 2:20 PM)100% (May 13, 7:50 PM)30.21 "Hg (May 13, 7:50 PM)
Low34 °F (May 16, 5:50 AM)23% (May 21, 3:50 PM)29.39 "Hg (May 13, 5:50 AM)
Average58 °F60%29.91 "Hg
* Reported May 13 5:50 AM — May 28 4:50 AM, Leoben, Weather by CustomWeather, © 2016

Note: Actual official high and low records may vary slightly from our data, if they occured in-between our weather recording intervals... More about our weather records

Advertising

Leoben Weather History for the Previous 24 Hours

Scroll right to see more
 ConditionsComfort  
Time TempWeatherWind HumidityBarometerVisibility
4:50 AM
Sat, May 28
57 °FPassing clouds.3 mph94%30.04 "Hg6 mi
10:50 PM
Fri, May 27
68 °FPartly cloudy.6 mph69%30.04 "Hg9 mi
9:50 PM70 °FPassing clouds.9 mph60%30.01 "Hg12 mi
8:50 PM72 °FBroken clouds.6 mph57%29.98 "Hg12 mi
7:50 PM73 °FBroken clouds.5 mph53%29.98 "Hg16 mi
6:50 PM75 °FBroken clouds.5 mph50%29.98 "Hg19 mi
6:20 PM75 °FBroken clouds.6 mph54%29.98 "Hg19 mi
5:50 PM75 °FPartly sunny.9 mph50%29.98 "Hg19 mi
5:20 PM77 °FBroken clouds.14 mph44%29.98 "Hg19 mi
4:50 PM79 °FBroken clouds.9 mph48%29.98 "Hg19 mi
4:20 PM79 °FBroken clouds.7 mph45%29.98 "Hg19 mi
3:50 PM79 °FBroken clouds.6 mph45%29.98 "Hg19 mi
3:20 PM79 °FBroken clouds.9 mph39%29.98 "Hg19 mi
2:50 PM79 °FBroken clouds.6 mph37%29.98 "Hg22 mi
2:20 PM79 °FBroken clouds.3 mph37%29.98 "Hg25 mi
1:50 PM79 °FPartly sunny.3 mph37%29.98 "Hg25 mi
1:20 PM77 °FPartly sunny.2 mph39%30.01 "Hg25 mi
12:50 PM75 °FPartly sunny.5 mph39%30.01 "Hg25 mi
12:20 PM75 °FPartly sunny.2 mph44%30.01 "Hg25 mi
11:50 AM73 °FPartly sunny.3 mph44%30.04 "Hg25 mi
11:20 AM72 °FPartly sunny.5 mph44%30.04 "Hg25 mi
10:50 AM72 °FPartly sunny.1 mph57%30.04 "Hg25 mi
10:20 AM68 °FPartly sunny.1 mph56%30.04 "Hg25 mi
9:50 AM64 °FPartly sunny.2 mph68%30.07 "Hg25 mi
9:20 AM63 °FPartly sunny.1 mph68%30.07 "Hg25 mi
8:50 AM61 °FPartly sunny.3 mph68%30.07 "Hg25 mi
8:20 AM57 °FPartly sunny.2 mph82%30.07 "Hg19 mi
7:50 AM57 °FPartly sunny.1 mph77%30.07 "Hg19 mi
7:20 AM55 °FPartly sunny.1 mph82%30.07 "Hg19 mi
6:50 AM54 °FPartly sunny.2 mph88%30.07 "Hg19 mi
Weather by CustomWeather, © 2016

See weather overviewHow to use our weather pages